SCP
1 0 0 0 0 0 0 0 0 0 0 0 0 0 0 0 0 0 0 0 0 0 0 0 0 0 0 0 0 0 0 0 0 0 0 0 0 0 0 0 0 0 0 -0 -0
1 0 0 0 0 0 0 0 0 0 0 0 0 0 0 0 0 0 0 0 0 0 0 0 0 0 0 0 0 0 0 0 0 0 0 0 0 0 0 0 0 0 0 0 -0
1 0 0 0 0 0 0 0 0 0 0 0 0 0 0 0 0 0 0 0 0 0 0 0 0 0 0 0 0 0 0 0 0 0 0 0 0 0 0 0 0 0 0 0 -0
1 0 0 0 0 0 0 0 0 0 0 0 0 0 0 0 0 0 0 0 0 0 0 0 0 0 0 0 0 0 0 0 0 0 0 0 0 0 0 0 0 0 -0 0 0
0 0 0 0 0 -0 0 0 0 0 0 0 0 0 0 0 0 0 0 0 0 0 0 0 0 0 0 0 0 0 0 0 0 0 0 0 0 0 0 0 0 0 0 0 0
0 0 0 0 0 0 0 0 0 0 0 0 0 0 0 0 0 0 0 0 0 0 0 0 0 0 0 0 0 0 0 0 0 0 0 0 0 0 0 0 0 0 0 0 0
0 0 0 0 0 0 0 0 0 0 0 0 0 0 0 0 0 0 0 0 0 0 0 0 0 0 0 0 0 0 0 0 0 0 0 0 0 0 0 0 0 0 0 0 0
0 0 0 0 0 0 0 0 0 0 0 0 0 0 0 0 0 0 0 0 0 0 0 0 0 0 0 0 0 0 0 0 0 0 0 0 0 0 0 0 0 0 0 0 0
0 0 0 0 0 0 0 0 0 0 0 0 0 0 0 0 0 0 0 0 0 0 0 0 0 0 0 0 0 0 0 0 0 0 0 0 0 0 0 0 0 0 0 0 0
0 0 0 0 0 0 0 0 0 0 0 0 0 0 0 0 0 0 0 0 0 0 0 0 0 0 0 0 0 0 0 0 0 0 0 0 0 0 0 0 0 0 0 0 0
0 0 0 0 0 0 0 0 0 0 0 0 0 0 0 0 0 0 0 0 0 0 0 0 0 0 0 0 0 0 0 0 0 0 0 0 0 0 0 0 0 0 0 0 0
0 0 0 0 0 0 0 0 0 0 0 0 0 0 0 0 0 0 0 0 0 0 0 0 0 0 0 0 0 0 0 0 0 0 0 0 0 0 0 0 0 0 0 0 0
0 0 0 0 0 0 0 0 0 0 0 0 0 0 0 0 0 0 0 0 0 0 0 0 0 0 0 0 0 0 0 0 0 0 0 0 0 0 0 0 0 0 0 0 0
0 0 0 0 0 0 -0 0 0 0 0 0 0 0 0 0 0 0 0 0 0 0 0 0 0 0 0 0 0 0 0 0 0 0 0 0 0 0 0 0 0 0 0 0 0
0 0 0 0 0 -0 -0 0 0 0 0 0 0 0 0 0 0 0 0 0 0 0 0 0 0 0 0 0 0 0 0 0 0 0 0 0 0 0 0 0 0 0 0 0 0
0 0 0 0 0 0 0 0 0 0 0 0 0 0 0 0 0 0 0 0 0 0 0 0 0 0 0 0 0 0 0 0 0 0 0 0 0 0 0 0 0 0 0 0 0
0 0 0 0 -0 0 0 0 0 0 0 0 0 0 0 0 0 0 0 0 0 0 0 0 0 0 0 0 0 0 0 0 0 0 0 0 0 0 0 0 0 0 0 0 0
0 0 0 0 0 0 0 0 0 0 0 0 0 0 0 0 0 0 0 0 0 0 0 0 0 0 0 0 0 0 0 0 0 0 0 0 0 0 0 0 0 0 0 0 0
0 0 0 -0 -0 0 0 0 0 0 0 0 0 0 0 0 0 0 0 0 0 0 0 0 0 0 0 0 0 0 0 0 0 0 0 0 0 0 0 0 0 0 0 0 0
0 0 -0 -0 -0 0 0 0 0 0 0 0 0 0 0 0 0 0 0 0 0 0 0 0 0 0 0 0 0 0 0 0 0 0 0 0 0 0 0 0 0 0 0 0 0
0 0 0 0 0 0 0 0 0 0 0 0 0 0 0 0 0 0 0 0 0 0 0 0 0 0 0 0 0 0 0 0 0 0 0 0 0 0 0 0 0 0 0 0 0
0 -0 0 0 0 0 0 0 0 0 0 0 0 0 0 0 0 0 0 0 0 0 0 0 0 0 0 0 0 0 0 0 0 0 0 0 0 0 0 0 0 0 0 0 0
0 0 0 0 0 0 0 0 0 0 0 0 0 0 0 0 0 0 0 0 0 0 0 0 0 0 0 0 0 0 0 0 0 0 0 0 0 0 0 0 0 0 -0 0 0
0 0 0 0 0 0 0 0 0 0 0 0 0 0 0 0 0 0 0 0 0 0 0 0 0 0 0 0 0 0 0 0 0 0 0 0 0 0 0 0 0 0 0 0 0
0 0 0 0 0 0 0 0 0 0 0 0 0 0 0 0 0 0 0 0 0 0 0 0 0 0 0 0 0 0 0 0 0 0 0 0 0 0 0 0 -0 -0 -0 0 0
0 0 0 0 0 0 0 0 0 0 0 0 0 0 0 0 0 0 0 0 0 0 0 0 0 0 0 0 0 0 0 0 0 0 0 0 0 0 0 0 -0 -0 -0 -0 0
0 0 0 0 0 0 0 0 0 0 0 0 0 0 0 0 0 0 0 0 0 0 0 0 0 0 0 0 0 0 0 0 0 0 0 0 0 0 0 0 0 0 -0 0 0
Wind_Speed_500mb
63 70 65 66 69 74 74 74 73 70 64 72 68 57 48 48 48 45 49 42 50 28 37 40 40 26 14 11 12 9 8 5 11 11 7 16 9 10 10 27 14 21 9 11 54
57 68 64 65 58 75 79 77 77 74 67 73 71 63 54 48 47 54 58 35 38 38 36 40 44 31 14 9 8 8 7 16 11 13 10 22 18 28 12 20 9 18 16 34 60
50 62 68 55 63 61 54 80 80 76 72 76 72 68 57 51 36 49 53 50 45 45 36 48 44 34 10 10 2 2 8 6 7 11 10 21 14 26 20 7 25 37 33 55 63
46 53 58 57 60 80 95 78 83 78 73 76 77 75 59 49 18 16 48 56 43 52 39 43 38 27 13 13 6 4 11 8 6 7 10 18 20 16 32 14 30 31 39 63 68
43 47 53 58 48 65 85 69 82 81 76 79 79 71 61 44 28 2 31 56 47 54 50 43 45 25 13 20 11 8 21 26 28 18 13 19 21 12 35 16 13 32 49 64 68
42 44 46 50 46 55 69 56 76 83 79 80 78 75 73 24 40 18 19 51 49 53 60 43 35 30 16 13 10 9 19 21 21 20 10 14 3 9 22 20 18 39 55 69 70
43 42 47 46 49 54 79 60 84 84 77 81 84 84 58 36 34 28 24 48 49 53 51 55 25 30 15 14 14 14 12 16 18 10 7 6 2 14 13 25 30 46 55 71 71
46 47 43 48 41 61 80 70 88 85 82 91 86 64 22 50 22 20 39 47 43 50 34 39 47 26 14 17 10 8 8 4 7 10 4 10 18 9 21 37 41 49 57 70 72
46 48 45 45 40 59 55 79 84 80 87 87 80 48 21 50 32 30 39 49 38 35 36 33 40 18 12 13 4 1 14 18 13 15 4 7 12 10 29 40 47 56 60 68 72
34 45 49 40 34 56 54 77 72 79 92 91 76 28 29 55 51 45 38 46 43 42 36 26 12 9 7 18 32 11 14 6 23 10 5 6 15 8 30 44 57 60 61 67 73
36 30 41 41 30 59 53 64 64 72 121 33 44 9 61 52 55 50 51 51 51 31 11 14 11 33 29 34 4 18 10 25 3 10 9 15 17 23 23 32 32 61 69 70 73
40 34 32 40 27 63 65 64 95 55 31 21 68 29 75 81 32 52 62 28 26 21 18 9 26 18 27 26 16 20 24 34 11 5 5 9 24 20 14 25 58 61 68 72 67
44 40 35 36 40 60 72 73 83 76 16 35 45 54 72 60 33 50 61 29 26 24 28 8 2 28 26 27 25 15 31 19 7 3 3 7 18 16 12 30 37 60 64 66 72
49 43 39 35 37 68 53 56 71 89 9 19 14 26 53 42 15 63 49 22 4 17 25 7 10 32 29 36 33 24 14 5 11 8 18 3 21 19 14 22 22 57 64 70 74
41 40 37 44 27 56 38 60 74 46 14 25 15 57 55 19 48 32 40 16 14 16 10 9 20 36 35 32 28 6 21 16 8 6 11 19 6 10 5 21 21 40 71 78 77
35 34 36 48 48 29 50 95 88 8 12 15 22 24 29 15 9 36 19 18 17 13 10 4 6 21 18 25 28 17 18 17 12 6 7 24 14 13 23 12 13 40 69 82 79
38 35 45 45 64 41 73 94 13 13 15 17 20 48 31 21 14 25 20 17 11 12 10 4 6 4 22 29 17 15 23 5 5 7 20 9 12 38 12 19 23 40 75 79 80
40 43 45 55 52 70 85 34 10 13 12 7 29 43 19 28 8 25 29 17 14 9 9 13 11 18 13 12 12 20 11 11 14 10 3 10 22 19 19 33 34 40 43 57 79
26 38 46 65 56 65 38 23 18 21 21 24 44 31 13 13 18 20 31 27 21 16 12 12 9 8 13 11 22 11 14 4 7 4 4 10 16 18 13 17 23 41 39 52 61
16 22 42 49 58 63 22 19 10 14 33 52 27 18 27 39 22 26 37 30 21 14 10 10 8 11 11 6 4 13 19 6 2 11 10 10 12 22 17 18 19 20 49 61 59
13 11 18 40 48 42 24 7 12 41 56 24 13 14 22 29 12 28 41 6 26 26 14 4 8 4 16 20 20 8 11 3 4 7 9 4 12 15 28 21 23 32 71 75 63
8 3 5 45 10 5 22 17 14 40 14 11 12 11 27 37 11 25 30 15 62 53 26 12 8 8 16 5 20 13 14 16 13 17 8 6 12 5 15 13 20 28 34 62 61
5 6 5 41 7 5 14 14 16 36 13 11 11 8 22 29 12 14 15 20 67 42 40 18 8 6 6 12 7 23 20 38 8 5 24 10 12 4 8 11 24 26 29 33 45
4 3 4 16 3 11 10 14 14 30 9 12 16 30 26 23 2 25 22 13 55 42 49 41 11 14 17 4 17 17 40 17 33 9 8 23 8 25 29 13 15 22 26 31 40
5 1 2 2 7 6 23 26 25 19 5 18 6 34 23 13 20 11 12 10 19 38 23 18 11 7 7 6 8 15 29 40 37 44 16 39 27 13 21 11 17 21 25 33 43
3 5 0 4 1 14 22 37 45 11 16 17 25 38 18 22 21 15 18 11 13 6 24 1 5 6 3 5 7 12 20 41 41 36 34 35 36 9 21 34 12 16 27 36 46
2 7 3 5 4 9 15 28 42 24 11 17 30 18 10 15 29 43 28 34 27 25 16 24 9 6 11 5 13 9 37 37 30 18 37 39 38 5 15 20 46 63 37 41 38
Wind_Direction_500mb
230 229 231 233 229 233 224 218 220 227 230 219 217 217 210 205 215 220 223 225 219 218 212 202 202 205 216 231 199 155 73 180 193 152 226 165 153 155 169 150 170 185 179 197 169
230 227 230 221 221 225 225 219 221 224 226 217 214 210 209 204 212 225 230 226 220 216 207 199 200 194 186 183 212 131 128 211 203 184 198 184 175 162 159 165 185 181 181 165 172
232 225 225 234 235 224 215 220 221 223 222 213 211 208 206 202 206 235 224 227 212 206 205 203 201 188 198 132 105 141 178 214 251 221 216 189 186 171 154 222 203 198 176 173 177
232 225 219 230 236 224 233 209 219 220 215 209 210 209 198 195 199 227 222 224 213 202 196 191 184 173 186 156 131 75 352 310 316 234 188 176 176 181 186 214 219 217 200 180 183
227 226 228 228 240 237 234 239 217 212 209 207 210 206 188 190 212 296 198 202 208 200 199 186 182 179 174 152 107 77 335 334 328 309 244 183 192 190 211 231 199 200 192 189 188
226 224 229 227 236 234 218 248 206 206 204 205 205 199 190 204 215 240 203 188 197 197 202 194 190 178 150 140 116 88 311 309 348 326 260 165 156 196 210 220 193 194 193 193 194
226 227 228 228 235 232 216 245 198 202 201 203 206 188 184 189 220 221 189 185 190 190 200 198 177 177 130 109 128 90 19 332 335 312 283 154 81 233 203 192 190 191 195 195 198
221 223 227 224 232 220 217 241 199 202 200 197 201 191 182 189 197 191 176 178 186 191 190 190 197 182 98 107 68 86 79 256 271 315 238 158 251 235 207 192 191 193 197 198 203
224 227 230 227 234 216 217 215 198 200 195 197 185 173 145 179 184 184 179 174 173 174 177 146 165 154 150 126 108 246 208 214 272 229 276 167 252 254 202 193 201 199 203 203 208
223 233 232 231 230 211 210 196 196 191 187 186 180 129 165 183 177 175 174 178 159 156 143 164 114 121 162 178 199 154 186 196 227 231 188 224 260 269 206 200 208 206 207 209 213
222 229 227 223 224 209 191 190 182 185 173 171 169 141 158 162 177 179 167 159 145 140 148 164 186 201 182 195 160 181 174 225 245 263 201 221 235 243 213 222 217 212 211 213 218
224 228 230 222 226 210 195 210 200 183 126 163 162 144 154 160 140 168 170 149 162 171 110 143 219 185 151 183 146 164 187 207 252 263 231 221 252 249 184 222 223 219 217 219 221
227 234 230 224 218 210 211 208 181 158 99 157 149 140 152 155 139 155 165 153 166 172 173 174 285 139 157 173 158 184 189 189 242 281 181 313 262 248 229 232 241 235 232 227 226
231 239 231 220 229 222 225 194 164 155 114 152 165 157 158 143 116 159 154 141 115 170 170 245 170 157 163 189 188 197 174 94 27 337 232 353 263 248 221 233 207 232 230 230 229
226 228 218 209 209 222 224 214 163 156 154 157 145 152 151 158 131 163 162 104 140 132 152 157 186 173 181 184 178 210 122 94 87 27 9 238 267 234 147 239 227 228 231 233 232
216 219 216 214 225 196 217 167 160 155 157 146 145 155 139 162 119 138 152 107 112 87 62 91 304 179 182 167 168 115 85 54 53 76 244 224 209 223 219 194 223 231 235 233 234
230 228 217 212 223 198 185 159 148 201 146 150 159 158 139 150 125 155 161 145 145 127 153 133 144 338 144 124 87 117 146 114 157 191 234 202 207 245 283 219 199 222 231 234 235
222 226 222 224 213 210 172 157 185 167 137 168 147 151 143 137 91 156 158 164 192 123 127 155 192 175 181 181 159 163 186 152 179 194 291 126 228 236 231 240 241 241 239 239 237
213 220 235 221 222 225 212 203 180 159 137 138 138 144 125 142 131 159 191 189 183 169 143 167 174 140 202 134 142 163 212 89 102 72 75 202 267 307 249 271 238 235 237 237 237
203 214 236 227 225 224 196 186 129 137 127 143 149 161 161 165 151 174 175 196 185 177 88 198 127 200 169 106 229 182 154 191 306 177 231 251 271 229 201 231 244 249 240 239 238
169 175 221 217 209 231 188 152 109 153 140 145 139 127 167 167 140 179 181 208 172 172 142 71 100 144 137 206 176 142 180 179 251 185 181 196 252 213 210 221 220 225 240 239 240
165 211 243 180 173 239 183 141 125 157 144 111 98 103 163 159 135 173 189 175 184 164 177 179 121 162 191 147 192 183 176 171 190 210 204 137 275 204 241 298 282 273 261 247 240
184 291 319 163 193 214 149 133 145 163 138 149 123 148 150 157 143 182 161 220 165 172 163 164 197 108 84 326 312 205 200 203 266 343 216 148 243 200 230 270 270 268 270 260 243
119 56 357 187 122 171 180 161 122 181 120 88 116 117 123 160 66 179 167 189 179 177 177 156 171 181 187 219 137 190 196 194 217 251 236 246 312 297 290 276 284 265 257 242 227
88 92 298 269 160 233 172 162 141 163 176 133 89 155 149 143 176 170 152 126 175 186 174 172 201 166 218 67 137 168 183 198 209 222 214 249 252 250 272 289 269 267 250 232 220
125 139 351 268 70 168 200 182 165 146 151 184 155 165 153 152 182 153 132 156 164 103 189 115 275 119 51 37 222 197 195 200 215 223 238 244 257 231 246 285 237 230 231 223 224
115 103 74 346 8 168 189 192 179 134 13 147 136 144 146 154 149 154 158 149 151 163 170 201 139 103 226 116 87 307 217 217 220 209 227 236 243 257 264 260 267 278 245 236 241
Wind_Speed_850mb
63 70 65 66 69 74 74 74 73 70 64 72 68 57 48 48 48 45 49 42 50 28 37 40 40 26 14 11 12 9 8 5 11 11 7 16 9 10 10 27 14 21 9 11 54
57 68 64 65 58 75 79 77 77 74 67 73 71 63 54 48 47 54 58 35 38 38 36 40 44 31 14 9 8 8 7 16 11 13 10 22 18 28 12 20 9 18 16 34 60
50 62 68 55 63 61 54 80 80 76 72 76 72 68 57 51 36 49 53 50 45 45 36 48 44 34 10 10 2 2 8 6 7 11 10 21 14 26 20 7 25 37 33 55 63
46 53 58 57 60 80 95 78 83 78 73 76 77 75 59 49 18 16 48 56 43 52 39 43 38 27 13 13 6 4 11 8 6 7 10 18 20 16 32 14 30 31 39 63 68
43 47 53 58 48 65 85 69 82 81 76 79 79 71 61 44 28 2 31 56 47 54 50 43 45 25 13 20 11 8 21 26 28 18 13 19 21 12 35 16 13 32 49 64 68
42 44 46 50 46 55 69 56 76 83 79 80 78 75 73 24 40 18 19 51 49 53 60 43 35 30 16 13 10 9 19 21 21 20 10 14 3 9 22 20 18 39 55 69 70
43 42 47 46 49 54 79 60 84 84 77 81 84 84 58 36 34 28 24 48 49 53 51 55 25 30 15 14 14 14 12 16 18 10 7 6 2 14 13 25 30 46 55 71 71
46 47 43 48 41 61 80 70 88 85 82 91 86 64 22 50 22 20 39 47 43 50 34 39 47 26 14 17 10 8 8 4 7 10 4 10 18 9 21 37 41 49 57 70 72
46 48 45 45 40 59 55 79 84 80 87 87 80 48 21 50 32 30 39 49 38 35 36 33 40 18 12 13 4 1 14 18 13 15 4 7 12 10 29 40 47 56 60 68 72
34 45 49 40 34 56 54 77 72 79 92 91 76 28 29 55 51 45 38 46 43 42 36 26 12 9 7 18 32 11 14 6 23 10 5 6 15 8 30 44 57 60 61 67 73
36 30 41 41 30 59 53 64 64 72 121 33 44 9 61 52 55 50 51 51 51 31 11 14 11 33 29 34 4 18 10 25 3 10 9 15 17 23 23 32 32 61 69 70 73
40 34 32 40 27 63 65 64 95 55 31 21 68 29 75 81 32 52 62 28 26 21 18 9 26 18 27 26 16 20 24 34 11 5 5 9 24 20 14 25 58 61 68 72 67
44 40 35 36 40 60 72 73 83 76 16 35 45 54 72 60 33 50 61 29 26 24 28 8 2 28 26 27 25 15 31 19 7 3 3 7 18 16 12 30 37 60 64 66 72
49 43 39 35 37 68 53 56 71 89 9 19 14 26 53 42 15 63 49 22 4 17 25 7 10 32 29 36 33 24 14 5 11 8 18 3 21 19 14 22 22 57 64 70 74
41 40 37 44 27 56 38 60 74 46 14 25 15 57 55 19 48 32 40 16 14 16 10 9 20 36 35 32 28 6 21 16 8 6 11 19 6 10 5 21 21 40 71 78 77
35 34 36 48 48 29 50 95 88 8 12 15 22 24 29 15 9 36 19 18 17 13 10 4 6 21 18 25 28 17 18 17 12 6 7 24 14 13 23 12 13 40 69 82 79
38 35 45 45 64 41 73 94 13 13 15 17 20 48 31 21 14 25 20 17 11 12 10 4 6 4 22 29 17 15 23 5 5 7 20 9 12 38 12 19 23 40 75 79 80
40 43 45 55 52 70 85 34 10 13 12 7 29 43 19 28 8 25 29 17 14 9 9 13 11 18 13 12 12 20 11 11 14 10 3 10 22 19 19 33 34 40 43 57 79
26 38 46 65 56 65 38 23 18 21 21 24 44 31 13 13 18 20 31 27 21 16 12 12 9 8 13 11 22 11 14 4 7 4 4 10 16 18 13 17 23 41 39 52 61
16 22 42 49 58 63 22 19 10 14 33 52 27 18 27 39 22 26 37 30 21 14 10 10 8 11 11 6 4 13 19 6 2 11 10 10 12 22 17 18 19 20 49 61 59
13 11 18 40 48 42 24 7 12 41 56 24 13 14 22 29 12 28 41 6 26 26 14 4 8 4 16 20 20 8 11 3 4 7 9 4 12 15 28 21 23 32 71 75 63
8 3 5 45 10 5 22 17 14 40 14 11 12 11 27 37 11 25 30 15 62 53 26 12 8 8 16 5 20 13 14 16 13 17 8 6 12 5 15 13 20 28 34 62 61
5 6 5 41 7 5 14 14 16 36 13 11 11 8 22 29 12 14 15 20 67 42 40 18 8 6 6 12 7 23 20 38 8 5 24 10 12 4 8 11 24 26 29 33 45
4 3 4 16 3 11 10 14 14 30 9 12 16 30 26 23 2 25 22 13 55 42 49 41 11 14 17 4 17 17 40 17 33 9 8 23 8 25 29 13 15 22 26 31 40
5 1 2 2 7 6 23 26 25 19 5 18 6 34 23 13 20 11 12 10 19 38 23 18 11 7 7 6 8 15 29 40 37 44 16 39 27 13 21 11 17 21 25 33 43
3 5 0 4 1 14 22 37 45 11 16 17 25 38 18 22 21 15 18 11 13 6 24 1 5 6 3 5 7 12 20 41 41 36 34 35 36 9 21 34 12 16 27 36 46
2 7 3 5 4 9 15 28 42 24 11 17 30 18 10 15 29 43 28 34 27 25 16 24 9 6 11 5 13 9 37 37 30 18 37 39 38 5 15 20 46 63 37 41 38
Wind_Direction_850mb
230 229 231 233 229 233 224 218 220 227 230 219 217 217 210 205 215 220 223 225 219 218 212 202 202 205 216 231 199 155 73 180 193 152 226 165 153 155 169 150 170 185 179 197 169
230 227 230 221 221 225 225 219 221 224 226 217 214 210 209 204 212 225 230 226 220 216 207 199 200 194 186 183 212 131 128 211 203 184 198 184 175 162 159 165 185 181 181 165 172
232 225 225 234 235 224 215 220 221 223 222 213 211 208 206 202 206 235 224 227 212 206 205 203 201 188 198 132 105 141 178 214 251 221 216 189 186 171 154 222 203 198 176 173 177
232 225 219 230 236 224 233 209 219 220 215 209 210 209 198 195 199 227 222 224 213 202 196 191 184 173 186 156 131 75 352 310 316 234 188 176 176 181 186 214 219 217 200 180 183
227 226 228 228 240 237 234 239 217 212 209 207 210 206 188 190 212 296 198 202 208 200 199 186 182 179 174 152 107 77 335 334 328 309 244 183 192 190 211 231 199 200 192 189 188
226 224 229 227 236 234 218 248 206 206 204 205 205 199 190 204 215 240 203 188 197 197 202 194 190 178 150 140 116 88 311 309 348 326 260 165 156 196 210 220 193 194 193 193 194
226 227 228 228 235 232 216 245 198 202 201 203 206 188 184 189 220 221 189 185 190 190 200 198 177 177 130 109 128 90 19 332 335 312 283 154 81 233 203 192 190 191 195 195 198
221 223 227 224 232 220 217 241 199 202 200 197 201 191 182 189 197 191 176 178 186 191 190 190 197 182 98 107 68 86 79 256 271 315 238 158 251 235 207 192 191 193 197 198 203
224 227 230 227 234 216 217 215 198 200 195 197 185 173 145 179 184 184 179 174 173 174 177 146 165 154 150 126 108 246 208 214 272 229 276 167 252 254 202 193 201 199 203 203 208
223 233 232 231 230 211 210 196 196 191 187 186 180 129 165 183 177 175 174 178 159 156 143 164 114 121 162 178 199 154 186 196 227 231 188 224 260 269 206 200 208 206 207 209 213
222 229 227 223 224 209 191 190 182 185 173 171 169 141 158 162 177 179 167 159 145 140 148 164 186 201 182 195 160 181 174 225 245 263 201 221 235 243 213 222 217 212 211 213 218
224 228 230 222 226 210 195 210 200 183 126 163 162 144 154 160 140 168 170 149 162 171 110 143 219 185 151 183 146 164 187 207 252 263 231 221 252 249 184 222 223 219 217 219 221
227 234 230 224 218 210 211 208 181 158 99 157 149 140 152 155 139 155 165 153 166 172 173 174 285 139 157 173 158 184 189 189 242 281 181 313 262 248 229 232 241 235 232 227 226
231 239 231 220 229 222 225 194 164 155 114 152 165 157 158 143 116 159 154 141 115 170 170 245 170 157 163 189 188 197 174 94 27 337 232 353 263 248 221 233 207 232 230 230 229
226 228 218 209 209 222 224 214 163 156 154 157 145 152 151 158 131 163 162 104 140 132 152 157 186 173 181 184 178 210 122 94 87 27 9 238 267 234 147 239 227 228 231 233 232
216 219 216 214 225 196 217 167 160 155 157 146 145 155 139 162 119 138 152 107 112 87 62 91 304 179 182 167 168 115 85 54 53 76 244 224 209 223 219 194 223 231 235 233 234
230 228 217 212 223 198 185 159 148 201 146 150 159 158 139 150 125 155 161 145 145 127 153 133 144 338 144 124 87 117 146 114 157 191 234 202 207 245 283 219 199 222 231 234 235
222 226 222 224 213 210 172 157 185 167 137 168 147 151 143 137 91 156 158 164 192 123 127 155 192 175 181 181 159 163 186 152 179 194 291 126 228 236 231 240 241 241 239 239 237
213 220 235 221 222 225 212 203 180 159 137 138 138 144 125 142 131 159 191 189 183 169 143 167 174 140 202 134 142 163 212 89 102 72 75 202 267 307 249 271 238 235 237 237 237
203 214 236 227 225 224 196 186 129 137 127 143 149 161 161 165 151 174 175 196 185 177 88 198 127 200 169 106 229 182 154 191 306 177 231 251 271 229 201 231 244 249 240 239 238
169 175 221 217 209 231 188 152 109 153 140 145 139 127 167 167 140 179 181 208 172 172 142 71 100 144 137 206 176 142 180 179 251 185 181 196 252 213 210 221 220 225 240 239 240
165 211 243 180 173 239 183 141 125 157 144 111 98 103 163 159 135 173 189 175 184 164 177 179 121 162 191 147 192 183 176 171 190 210 204 137 275 204 241 298 282 273 261 247 240
184 291 319 163 193 214 149 133 145 163 138 149 123 148 150 157 143 182 161 220 165 172 163 164 197 108 84 326 312 205 200 203 266 343 216 148 243 200 230 270 270 268 270 260 243
119 56 357 187 122 171 180 161 122 181 120 88 116 117 123 160 66 179 167 189 179 177 177 156 171 181 187 219 137 190 196 194 217 251 236 246 312 297 290 276 284 265 257 242 227
88 92 298 269 160 233 172 162 141 163 176 133 89 155 149 143 176 170 152 126 175 186 174 172 201 166 218 67 137 168 183 198 209 222 214 249 252 250 272 289 269 267 250 232 220
125 139 351 268 70 168 200 182 165 146 151 184 155 165 153 152 182 153 132 156 164 103 189 115 275 119 51 37 222 197 195 200 215 223 238 244 257 231 246 285 237 230 231 223 224
115 103 74 346 8 168 189 192 179 134 13 147 136 144 146 154 149 154 158 149 151 163 170 201 139 103 226 116 87 307 217 217 220 209 227 236 243 257 264 260 267 278 245 236 241